Wind_Speed
16 17 17 14 14 16 15 16 20 22 23 24 25 26 27 26 26 27 29 34 37 37 37 37 37 36 34 29 23 21 22 20 24 31 33 31 31 29 27 28 28 28 28 27 26 26 24 22 20 20 20 20 18 15 12 13 14 12 12 12 10 9 9
17 17 17 16 15 16 16 18 21 23 23 24 25 26 26 26 27 29 31 35 39 39 38 37 37 38 37 33 25 22 23 21 24 32 33 32 32 29 29 29 29 29 29 28 27 25 24 21 21 21 21 21 19 16 14 13 13 12 12 11 10 10 9
16 16 17 17 17 17 17 18 21 23 23 24 25 26 27 28 31 35 35 34 37 37 36 37 38 38 37 34 28 25 25 25 30 34 34 33 33 30 30 30 30 30 29 28 27 25 23 22 22 22 22 22 21 17 15 14 13 12 12 11 10 10 10
16 17 18 18 18 17 16 17 21 24 26 26 28 29 30 35 39 40 37 34 33 33 34 37 37 37 38 37 32 26 27 31 36 36 34 34 33 31 31 31 31 30 29 28 27 25 24 23 23 23 22 22 21 19 16 15 14 13 13 12 11 10 10
16 16 16 16 16 15 15 17 20 24 26 28 29 29 31 36 37 34 33 33 32 32 36 36 32 33 36 34 30 29 33 38 38 36 35 34 34 32 32 32 32 31 30 28 27 26 25 25 25 24 23 23 22 19 18 16 15 15 15 14 12 11 11
14 14 14 14 15 16 17 19 22 26 28 28 29 29 30 31 31 30 31 31 31 30 32 32 32 36 37 33 33 36 39 39 38 37 36 34 34 33 32 32 31 30 29 27 26 27 27 26 26 25 24 23 22 20 19 17 16 16 16 16 14 13 11
13 13 14 15 16 17 18 18 22 27 28 28 28 28 29 28 28 30 29 29 32 31 29 31 33 36 37 36 38 39 39 39 39 38 36 35 35 34 33 32 29 28 27 27 27 27 27 28 27 25 24 24 23 21 19 18 17 17 17 17 16 15 14
13 13 14 16 16 17 17 17 20 25 26 25 25 24 26 27 26 28 28 28 30 30 30 30 29 32 37 37 37 39 39 39 39 38 37 36 35 33 33 31 28 27 28 27 28 28 28 28 27 25 25 24 23 22 20 19 18 18 17 18 17 15 14
13 13 14 15 15 15 15 15 18 22 23 24 24 24 26 26 26 28 28 28 28 28 30 29 27 31 37 37 37 39 39 38 38 37 34 33 32 33 34 31 29 29 29 29 29 28 28 27 26 25 25 25 23 23 22 20 19 18 18 17 17 15 14
12 12 12 12 13 12 12 13 16 16 18 20 21 22 24 25 26 26 27 27 27 27 27 27 25 27 33 37 37 36 38 37 34 30 27 29 31 34 34 32 30 29 29 29 29 28 28 26 25 25 25 25 24 23 22 20 19 19 18 17 17 16 15
10 10 10 11 12 12 13 14 14 13 14 17 19 20 22 24 25 25 25 25 25 24 24 26 25 24 29 33 31 32 35 31 25 25 28 32 36 36 35 32 30 30 30 29 28 27 27 25 25 26 26 25 25 24 22 20 19 19 18 18 17 17 16
9 9 10 12 13 12 13 13 12 12 13 16 20 22 22 24 25 24 24 24 24 24 23 25 25 24 26 28 27 28 26 22 24 30 36 38 38 37 36 34 31 30 30 29 27 27 26 25 26 27 27 27 26 24 21 20 20 19 19 18 18 18 18
8 8 9 11 11 11 11 11 13 14 14 17 21 22 22 24 25 24 23 23 24 23 22 24 25 24 24 25 24 21 21 26 33 40 42 42 41 40 39 37 34 32 31 30 29 29 26 24 26 28 27 27 26 23 21 20 20 20 19 18 19 19 19
8 9 9 10 11 12 13 13 13 14 14 17 20 21 22 23 23 22 22 22 23 23 23 23 23 22 22 21 18 18 25 34 41 44 46 45 42 40 40 40 37 34 33 32 31 31 28 25 26 28 27 27 25 23 22 22 22 21 20 20 20 21 21
11 12 12 13 14 14 14 13 13 14 14 16 19 20 20 20 20 20 20 21 22 23 23 21 20 20 19 17 17 22 30 36 39 43 45 42 38 38 39 39 37 34 34 34 33 31 29 25 24 27 29 27 25 23 23 24 24 23 22 22 23 23 24
12 13 14 15 15 14 13 13 13 13 13 14 17 20 20 20 20 20 21 21 21 21 21 18 17 19 18 17 21 27 31 33 36 39 40 37 37 36 32 30 34 36 36 36 34 33 30 25 25 28 29 28 25 23 24 25 26 25 23 23 23 23 24
13 14 14 15 14 13 12 11 12 13 13 15 18 20 20 20 19 20 20 20 19 19 19 18 18 20 20 19 22 29 31 31 34 39 40 35 33 35 35 33 36 39 39 38 36 34 30 26 26 27 27 27 26 25 25 26 27 25 23 23 22 22 22
13 14 15 14 13 12 13 13 14 14 15 16 19 20 19 17 16 16 16 17 18 19 20 20 20 21 21 19 22 27 30 33 35 35 30 21 20 32 44 47 44 42 39 38 37 34 30 27 25 23 23 24 24 26 27 27 26 25 24 24 23 22 22
13 14 14 13 13 14 15 15 14 14 15 16 18 18 17 16 15 17 19 20 21 20 19 19 20 20 20 19 22 27 31 33 31 25 20 19 23 35 46 49 50 47 40 36 33 30 28 24 19 16 18 19 22 27 28 27 26 25 25 25 24 23 23
9 7 7 9 12 14 13 11 11 12 14 15 15 16 16 18 20 21 21 21 19 19 18 18 18 18 19 20 24 28 30 29 27 26 27 30 34 38 40 43 46 42 33 28 25 24 23 19 14 13 17 18 23 28 28 28 29 27 27 28 25 23 23
7 4 4 7 10 11 10 10 10 11 13 15 16 17 18 21 21 19 18 18 18 19 18 17 17 18 19 21 22 26 29 29 29 31 34 34 34 36 39 42 42 33 23 20 21 21 19 18 17 18 20 21 26 29 28 31 33 30 29 30 27 26 25
8 7 7 7 8 7 8 10 12 13 15 16 18 19 19 19 18 16 16 16 17 17 17 17 17 18 19 19 21 25 29 30 30 31 33 33 34 36 38 40 36 28 21 20 22 21 18 20 23 25 26 27 29 29 29 32 33 30 31 32 30 27 25
8 9 9 10 10 10 10 12 14 16 17 17 16 16 15 15 15 15 14 14 15 16 16 16 16 18 20 19 20 25 28 28 29 30 30 31 31 33 36 36 33 28 26 25 25 25 25 27 28 27 25 25 26 27 29 31 31 30 32 32 29 25 22
3 5 6 7 9 11 11 10 11 12 12 11 10 9 10 12 14 14 14 14 14 14 15 15 16 17 20 19 19 24 26 27 28 29 27 27 27 27 28 28 27 28 29 28 27 29 32 34 31 26 22 21 23 25 27 28 28 30 30 27 23 20 19
6 7 7 7 7 10 10 9 10 11 10 10 8 7 9 12 13 13 12 11 12 13 13 13 13 15 17 17 18 21 23 24 26 25 22 21 21 19 19 20 23 26 27 26 26 28 30 29 26 24 22 21 22 24 25 26 28 29 27 24 22 20 18
10 10 10 11 12 13 13 13 14 13 12 11 9 9 11 12 12 11 10 9 10 10 10 10 12 14 16 16 17 19 20 22 22 19 18 19 19 19 22 26 29 29 28 26 25 23 21 20 18 19 21 21 22 23 23 23 23 23 21 21 21 19 17
15 15 14 14 14 16 16 16 16 15 13 11 12 12 12 13 12 10 9 9 8 7 8 11 14 15 16 15 16 17 18 19 18 16 17 19 18 21 27 29 31 32 28 24 21 19 17 16 15 16 18 18 19 20 20 20 19 19 20 21 21 18 16
16 16 16 15 14 14 15 15 15 16 14 12 13 13 13 14 13 11 9 9 8 9 10 12 13 13 14 15 16 15 15 15 15 16 18 19 21 26 31 30 29 30 27 22 18 17 15 14 14 15 16 17 18 18 18 20 20 20 23 25 22 19 15
14 14 14 15 15 16 17 16 15 15 14 12 13 13 12 14 14 11 10 10 10 12 13 13 13 14 15 15 15 14 14 14 15 18 21 23 25 29 29 25 23 24 23 20 16 14 13 14 16 17 18 19 18 16 16 19 20 21 24 23 19 14 11
11 11 12 14 16 20 22 19 15 15 14 13 14 13 10 12 13 11 9 10 13 15 15 15 16 15 15 14 13 13 14 15 17 21 24 25 27 26 23 20 19 19 18 17 15 14 15 17 18 19 18 18 17 14 15 20 22 21 20 18 13 9 8
11 11 12 13 14 17 20 19 17 16 13 12 14 13 11 11 13 12 11 12 15 16 16 17 17 15 14 13 12 13 14 15 18 23 25 25 25 23 21 20 20 19 17 16 16 17 17 17 19 18 16 16 15 14 17 20 18 16 15 13 10 9 8
10 11 12 11 10 12 16 18 17 15 14 13 13 12 11 11 11 13 14 16 17 17 18 18 17 14 12 13 14 15 15 15 17 20 21 21 21 20 19 20 20 19 17 16 16 17 18 19 20 19 17 15 14 14 16 16 12 10 11 11 11 10 9
10 10 11 10 8 7 10 13 12 11 11 12 12 12 12 12 12 13 16 18 19 19 19 19 17 14 14 16 17 16 16 16 16 16 17 17 16 16 16 16 16 16 17 16 16 19 21 20 18 16 14 13 12 12 13 12 10 10 12 12 12 11 10
8 9 10 10 9 7 7 8 8 8 8 9 12 13 12 12 14 16 17 18 18 19 20 19 15 14 16 17 17 15 16 16 16 15 14 14 14 13 13 13 14 16 18 18 18 20 21 16 12 11 11 11 11 10 10 9 10 12 14 14 13 12 11
8 8 8 8 7 6 5 4 4 4 4 5 9 12 10 9 12 15 17 18 18 20 20 18 15 14 16 16 15 14 14 15 14 13 13 14 13 13 13 13 13 14 16 17 17 17 15 11 8 8 9 9 9 9 9 9 11 14 15 13 12 11 11
7 6 6 5 3 3 4 3 3 4 3 3 6 8 7 7 10 14 15 16 19 20 19 17 15 13 13 14 13 13 14 15 15 15 14 13 13 14 14 14 14 14 13 14 15 15 13 12 11 9 8 8 8 10 11 11 13 14 13 10 10 10 10
6 5 5 3 2 2 2 3 3 2 2 4 5 5 4 6 10 12 14 16 19 19 18 18 15 12 11 12 12 13 15 14 15 16 14 12 14 15 14 12 11 11 12 13 13 13 13 13 12 11 10 9 8 10 13 14 12 11 9 7 7 7 8
8 6 6 4 3 2 1 0 2 3 5 6 7 7 7 8 11 13 14 17 19 18 18 20 18 13 11 11 10 12 14 13 13 15 14 14 16 16 13 11 10 8 8 9 9 9 9 8 8 9 10 9 7 9 13 14 11 8 6 5 4 4 5
Wind_Direction
204 209 209 203 200 199 197 194 195 197 196 195 197 199 200 200 201 203 208 213 216 219 220 220 220 218 217 216 214 215 217 216 219 225 228 229 230 230 228 225 220 216 212 208 205 204 203 203 202 204 206 208 209 212 216 213 209 207 205 206 206 208 214
204 207 206 203 201 201 199 196 196 198 197 196 196 198 199 199 199 203 208 213 216 218 220 220 220 220 220 218 214 214 216 215 218 225 228 228 229 228 228 226 221 217 214 212 210 209 207 205 202 203 206 207 209 211 211 207 205 205 206 208 209 212 222
201 202 200 201 201 199 197 195 197 198 197 196 195 196 198 199 203 207 209 210 214 216 218 220 221 221 220 217 216 215 214 215 221 225 227 227 226 226 226 225 221 218 216 214 213 212 210 206 203 204 206 207 207 209 208 205 203 204 205 207 211 219 230
197 198 196 198 197 194 195 196 198 197 197 197 197 196 197 202 208 210 210 209 210 212 214 218 219 220 220 219 217 215 214 219 224 226 226 226 226 225 224 222 219 217 216 214 213 213 211 207 206 207 208 207 208 209 208 207 207 208 208 210 216 225 234
197 194 194 197 197 196 198 200 197 196 198 199 198 197 199 204 207 207 208 210 209 211 215 217 216 217 220 217 214 217 222 225 226 225 226 225 224 224 222 219 217 216 216 215 214 213 210 208 208 210 210 209 210 210 212 212 212 216 217 217 221 228 236
191 190 194 196 198 200 200 200 197 196 198 200 198 199 202 203 203 204 207 208 208 211 213 213 214 218 219 216 217 223 225 226 225 225 225 224 222 221 220 218 217 216 216 216 215 213 210 209 210 212 212 211 211 212 215 217 218 222 224 224 227 232 237
186 188 194 195 197 201 199 198 197 197 199 200 200 201 202 202 202 205 207 206 207 208 207 209 213 217 219 219 221 223 223 224 224 223 222 221 220 220 218 216 215 216 217 217 216 214 211 211 212 214 214 213 214 216 219 220 223 227 230 230 232 235 240
191 188 193 198 198 198 197 194 195 196 196 197 199 201 201 201 203 206 207 207 208 207 207 209 209 214 219 219 220 221 222 222 221 220 219 218 217 216 215 213 214 216 215 215 216 214 213 214 214 215 216 215 216 220 222 222 225 232 234 234 236 239 240
196 193 197 200 198 196 195 190 189 191 190 192 195 197 197 200 203 206 208 208 208 207 209 208 206 213 219 218 219 221 220 219 219 218 215 213 212 212 213 214 216 217 212 211 213 214 214 215 216 217 217 217 220 221 220 221 227 235 237 237 239 239 238
194 195 196 196 194 191 188 183 183 186 188 190 192 194 196 200 205 207 209 210 210 210 210 207 206 210 216 217 217 218 218 217 214 209 206 209 211 212 213 215 216 216 213 211 212 213 213 215 218 220 220 219 221 220 219 223 231 237 240 241 240 240 242
191 188 187 189 188 183 181 182 183 186 189 189 191 195 198 202 206 208 210 211 212 212 211 210 208 207 211 213 211 212 216 210 195 194 206 213 213 212 213 214 215 216 216 213 213 214 213 214 218 222 222 220 220 220 222 226 234 240 243 244 242 243 246
189 183 186 188 187 183 182 184 185 186 188 190 193 197 200 204 208 210 212 212 212 213 212 211 211 208 207 206 204 206 203 183 175 195 211 215 213 211 211 212 214 215 216 216 217 216 213 214 220 221 222 221 220 222 227 231 237 242 244 244 244 246 249
189 184 187 187 184 182 182 184 186 187 189 191 195 199 201 204 208 209 211 211 211 212 213 212 211 208 205 204 203 192 174 175 190 204 213 215 212 209 208 210 211 211 215 219 219 215 211 214 223 225 223 222 222 225 231 235 240 243 243 244 246 249 251
188 187 187 185 186 186 185 186 187 187 189 192 196 199 201 205 207 208 209 210 211 212 214 213 209 206 205 201 190 175 180 196 205 209 213 211 208 206 206 207 208 208 213 219 218 215 210 210 220 229 227 225 225 229 235 239 241 243 243 245 248 250 251
193 192 188 189 194 193 188 186 184 185 189 192 195 197 200 204 205 207 209 210 212 213 216 215 208 206 205 192 182 190 201 208 210 212 212 206 202 207 207 205 208 211 214 218 219 217 212 207 216 228 232 232 231 233 237 240 242 244 246 248 249 250 250
196 194 192 196 199 193 188 184 181 183 185 189 194 196 199 202 202 206 209 212 213 214 215 215 207 205 203 191 194 205 209 208 209 212 210 201 199 206 207 206 211 215 216 218 218 215 210 207 212 224 233 238 237 236 239 242 245 248 250 251 251 251 252
197 196 199 203 199 187 182 180 178 181 187 192 195 195 197 199 200 204 208 212 214 213 213 213 209 208 205 198 203 208 207 206 208 210 210 203 193 195 205 215 218 216 216 217 214 209 208 208 210 219 232 239 241 242 242 245 249 252 253 251 249 249 250
194 197 203 203 191 180 181 182 181 185 190 194 195 195 196 194 192 196 202 207 212 213 213 212 212 211 206 201 203 206 205 207 210 211 207 193 173 186 203 214 218 218 216 213 209 205 206 208 208 216 231 239 245 249 248 249 253 255 256 252 247 247 248
197 201 204 196 182 180 185 187 186 187 188 190 191 192 190 184 185 194 202 207 210 210 209 209 209 209 205 202 204 206 206 206 206 201 188 178 182 195 203 208 213 216 214 208 203 199 201 204 201 214 232 238 247 253 253 255 257 256 256 253 248 248 250
218 213 203 188 183 186 187 182 178 178 179 179 180 180 182 187 196 202 204 204 204 202 203 204 205 206 204 204 205 206 205 201 196 194 196 197 198 201 203 205 211 214 211 203 194 187 192 192 190 219 237 237 246 255 257 258 258 258 258 256 252 251 252
232 229 203 187 188 192 183 168 163 164 168 172 176 180 187 195 200 200 198 198 198 199 200 199 201 205 205 203 202 203 201 197 195 198 203 203 200 199 202 207 210 210 202 189 176 171 178 179 187 221 236 231 238 249 253 255 259 262 261 258 254 252 253
206 200 195 186 188 190 174 166 166 165 167 173 178 184 191 193 194 193 193 194 195 195 195 198 201 206 206 200 198 200 200 198 199 200 202 203 200 200 204 205 206 203 191 177 166 163 171 179 193 220 230 225 231 243 250 258 264 266 264 260 255 252 253
202 192 188 180 176 173 173 177 174 169 170 175 179 184 186 184 183 183 184 187 188 187 189 195 200 205 207 203 198 201 201 200 200 201 201 201 200 202 204 203 200 194 183 171 166 172 184 193 203 220 227 224 230 239 248 260 267 265 264 261 256 254 255
185 170 162 160 160 157 163 170 164 157 158 159 162 167 169 170 173 174 176 179 179 179 185 193 199 206 209 206 202 203 202 201 202 202 201 202 203 205 205 198 189 181 173 167 172 186 198 203 208 218 227 232 236 240 248 261 267 264 262 260 254 250 251
96 99 101 104 116 128 134 130 123 122 118 113 119 138 155 163 167 168 169 167 167 174 184 191 197 204 207 207 207 206 203 201 203 202 202 204 205 203 195 181 171 168 170 177 187 196 202 205 208 217 231 243 246 246 252 260 263 261 257 251 246 243 244
87 85 87 90 101 113 115 109 105 103 98 98 112 134 147 152 152 148 146 147 157 170 178 187 197 204 207 208 208 206 204 203 201 197 194 197 195 187 178 173 173 176 180 186 192 196 198 201 209 223 237 245 248 250 254 255 255 256 253 245 238 239 249
84 83 85 91 99 104 103 99 98 97 96 103 118 130 138 139 130 122 125 134 144 154 171 191 201 204 206 207 204 204 204 201 194 184 183 187 183 172 168 171 177 180 178 179 185 192 198 205 217 230 236 239 242 245 248 250 252 255 255 248 244 250 263
90 90 92 91 89 92 95 93 91 90 90 97 109 119 126 123 114 111 120 131 140 157 176 191 195 196 198 198 196 195 190 184 181 175 173 174 169 164 166 172 178 177 173 173 180 188 199 211 223 228 228 231 235 240 245 252 256 254 249 248 253 261 265
87 91 93 90 84 83 84 79 71 70 73 80 92 101 112 115 116 121 130 140 155 168 175 180 182 184 186 184 182 179 174 173 174 170 168 168 166 164 168 174 176 173 172 174 179 189 204 215 220 222 222 226 236 248 254 251 245 241 243 250 258 263 254
78 83 86 86 87 87 86 84 79 73 71 80 92 100 110 118 122 126 134 149 162 167 169 173 176 175 171 168 168 169 170 171 168 167 170 173 170 167 166 169 171 173 174 178 189 204 214 217 218 218 220 224 231 244 247 238 233 237 248 259 261 250 240
71 76 81 85 91 94 97 101 103 100 97 100 108 115 123 128 132 139 149 160 166 166 167 170 169 164 158 159 164 167 168 166 165 168 172 173 171 167 165 169 174 178 181 188 201 210 213 215 217 215 215 216 217 224 229 228 232 242 252 254 245 235 238
60 66 75 78 81 93 103 108 109 112 115 116 119 125 131 138 146 154 161 166 168 170 170 168 162 156 155 162 165 165 163 160 162 166 167 168 170 171 173 177 181 185 190 196 203 207 209 214 216 214 212 211 212 218 222 223 231 244 245 237 230 229 238
50 51 58 59 53 67 95 103 107 114 120 126 136 143 148 156 165 169 169 168 169 173 173 167 159 156 163 166 163 162 163 161 158 158 161 166 171 176 180 185 187 190 196 199 202 209 215 218 214 208 205 209 214 218 222 228 239 242 233 224 221 227 240
47 45 51 53 47 47 63 83 105 122 125 133 149 159 165 171 175 174 170 169 172 175 173 165 159 163 169 167 160 159 166 165 158 155 161 168 173 177 184 191 196 199 203 206 210 216 220 220 212 206 211 214 208 203 209 222 227 220 217 218 221 228 237
34 38 46 49 48 54 59 65 88 100 91 114 153 171 178 177 173 170 168 171 177 178 172 165 165 169 168 164 161 163 166 167 165 162 161 164 171 178 184 192 202 207 210 216 220 221 221 220 215 220 224 215 198 191 193 199 204 208 213 220 225 229 234
27 33 45 55 74 101 108 100 85 76 82 125 162 174 174 170 173 173 173 178 181 179 173 168 168 168 163 162 169 173 173 176 179 176 169 168 178 186 188 195 203 206 208 216 220 222 224 227 227 227 218 203 200 202 196 192 201 210 215 220 228 238 246
21 21 25 33 66 87 89 98 103 111 161 187 195 191 185 188 188 183 181 183 182 179 176 171 164 158 161 171 179 182 182 185 188 185 180 182 188 187 182 182 188 192 200 212 219 224 230 233 233 234 233 230 230 217 200 195 204 213 215 223 237 247 248
16 11 5 10 29 43 21 239 214 218 216 216 216 208 198 196 192 187 185 185 183 182 181 176 169 163 168 177 182 183 186 189 189 186 185 187 188 184 176 170 168 172 190 210 223 232 240 244 245 245 241 237 228 206 198 200 206 211 216 232 243 237 229
Height
731 732 733 735 737 739 741 743 746 749 751 755 759 762 765 768 771 773 774 776 778 780 782 783 786 788 790 792 795 797 798 800 801 802 804 805 807 808 810 811 812 813 814 815 817 818 820 822 824 826 828 829 830 832 833 833 834 835 835 836 836 837 838
725 727 728 730 732 734 736 738 741 744 746 750 754 758 761 764 766 768 770 771 773 775 778 780 782 784 786 789 791 793 795 797 797 798 800 802 804 805 806 808 809 811 812 814 816 818 819 821 823 824 826 827 828 829 831 832 833 834 834 834 835 836 836
719 721 722 724 725 727 730 732 735 738 742 746 749 753 756 758 760 762 764 766 769 772 775 776 778 780 783 786 788 789 791 792 793 795 797 798 800 802 804 805 807 809 811 813 815 817 819 820 821 822 823 824 826 827 829 830 831 832 832 833 834 834 835
713 713 714 717 718 721 724 726 729 732 736 740 743 746 749 751 753 756 759 762 765 768 770 772 774 777 779 781 784 786 786 787 789 791 794 795 798 800 802 804 806 808 809 811 813 815 817 819 819 820 821 822 824 825 827 828 829 830 831 831 832 833 834
708 709 711 714 715 718 719 720 724 727 731 735 738 741 743 745 749 752 756 758 761 764 766 769 771 773 775 777 780 781 781 784 786 788 791 793 796 798 800 802 804 806 808 810 812 813 814 816 817 819 820 821 823 824 825 826 827 828 829 829 830 831 831
705 707 708 710 711 713 713 715 719 722 727 730 733 736 738 742 746 749 752 754 757 760 762 765 767 768 770 773 775 776 778 781 784 786 788 791 794 796 798 800 803 805 808 809 811 812 812 813 815 817 818 820 822 823 824 825 825 826 827 827 828 828 829
700 702 704 705 705 706 708 711 714 718 723 726 729 732 735 739 742 744 747 749 751 755 757 760 762 764 766 769 771 773 776 779 781 783 786 789 792 794 797 800 803 805 807 809 810 811 812 813 813 815 817 818 820 821 822 823 824 825 825 826 826 826 826
695 697 698 699 699 701 704 706 710 715 719 723 726 729 732 736 738 740 743 745 747 750 752 755 758 760 762 765 767 770 773 775 778 780 783 786 790 793 796 799 801 801 803 805 808 809 810 811 812 814 815 816 817 818 820 821 822 823 824 824 825 824 824
691 693 693 694 695 698 700 703 707 712 715 718 721 724 728 732 734 736 738 740 743 745 747 751 754 756 758 761 764 767 769 772 775 778 783 787 790 793 794 795 797 797 798 800 803 805 807 809 811 812 813 814 815 816 817 818 820 821 822 822 823 823 823
689 691 691 692 694 696 698 701 705 709 711 714 718 721 725 728 730 732 734 737 739 741 744 748 751 753 754 757 761 764 766 769 773 780 785 788 789 790 791 793 795 797 798 798 800 802 804 806 809 811 812 812 813 814 815 816 817 818 819 820 821 821 821
687 689 691 693 694 695 697 699 702 705 707 711 715 719 722 724 727 729 731 734 736 739 742 745 747 749 750 753 757 760 764 768 774 780 783 783 782 784 788 791 793 796 797 798 799 800 801 803 806 808 810 810 811 812 813 813 815 816 817 818 819 820 820
686 688 690 692 693 694 695 697 699 701 704 708 712 715 718 721 723 726 728 731 734 737 739 741 743 745 746 750 754 757 762 767 771 773 774 774 775 779 783 786 789 793 797 798 798 798 799 801 803 805 806 808 809 810 811 812 813 814 815 816 817 818 818
685 686 688 690 692 693 694 695 698 699 702 706 709 712 715 717 720 723 725 728 731 734 736 738 739 741 743 747 751 755 759 761 760 759 760 763 767 771 775 779 783 787 792 794 793 793 794 797 801 803 804 805 806 808 809 810 811 812 813 814 815 816 817
685 686 688 690 691 691 692 694 696 698 700 703 706 709 712 714 717 720 722 725 728 731 733 734 736 738 741 745 750 753 753 750 748 748 751 754 761 767 771 774 779 782 786 788 788 789 790 792 797 802 803 803 805 806 808 809 810 811 811 812 813 814 814
684 685 687 688 688 688 688 690 692 695 698 701 704 707 709 712 715 717 720 722 725 727 730 732 734 736 740 744 747 747 746 745 746 748 750 753 762 771 773 774 778 781 783 784 784 786 787 788 793 799 802 803 804 805 807 808 808 809 810 810 811 811 811
682 683 684 684 684 683 684 687 689 692 696 698 701 704 706 709 712 714 717 719 722 725 727 730 732 734 738 741 742 742 743 744 746 748 751 754 761 771 778 780 781 780 780 780 780 782 783 785 789 795 799 801 803 804 805 806 807 808 808 808 809 809 809
679 680 680 679 679 680 682 685 688 690 693 695 697 700 703 705 708 711 714 717 720 722 725 728 729 731 735 737 737 739 741 743 744 746 749 754 759 767 775 779 779 777 774 774 775 777 780 782 785 790 796 799 801 803 804 805 806 806 807 807 807 807 807
675 675 675 675 676 678 680 682 684 687 688 691 694 697 700 703 706 709 713 715 717 720 722 725 726 728 731 733 735 737 739 740 743 745 751 757 763 765 767 769 770 769 767 768 770 774 777 779 781 786 793 797 800 802 802 803 804 805 805 805 805 806 805
668 668 668 669 671 674 676 677 678 681 684 687 691 695 698 701 705 707 710 712 714 717 719 721 723 725 728 730 732 734 736 739 743 747 751 755 758 758 757 758 760 761 763 766 769 772 776 779 780 785 791 796 799 801 801 802 803 804 804 803 803 804 803
665 665 665 666 669 670 672 673 675 678 682 686 690 693 697 700 702 704 706 709 711 714 716 719 721 723 725 727 729 731 734 738 741 744 745 746 749 752 755 756 757 759 763 766 768 771 776 778 781 786 792 795 797 799 800 800 800 801 802 801 801 802 801
664 665 666 667 668 669 670 671 673 677 681 685 688 692 695 696 698 701 704 706 708 711 714 716 718 720 722 724 727 729 731 735 737 738 740 742 745 749 752 753 754 758 763 765 766 768 772 775 779 784 789 791 793 795 796 797 798 799 800 799 799 799 798
660 663 665 666 667 669 670 670 672 675 679 683 686 689 691 693 696 699 702 704 706 709 712 714 716 717 720 722 724 726 728 731 733 735 737 740 743 745 747 749 752 757 760 762 763 766 769 772 774 779 784 787 789 791 792 793 795 796 796 796 796 796 795
655 657 658 659 662 666 669 672 672 674 678 681 684 687 689 692 695 697 700 703 705 707 710 712 714 715 718 720 722 723 726 728 730 733 735 737 740 742 743 745 749 752 754 756 758 761 765 767 770 775 779 782 784 787 789 791 792 793 793 793 794 794 793
653 654 656 658 660 663 668 672 673 675 678 681 684 687 690 692 694 696 699 701 703 706 708 710 712 714 716 718 720 722 724 726 728 731 733 736 738 740 742 744 747 749 749 751 754 757 761 763 767 771 775 778 781 784 786 788 789 789 790 791 791 791 790
654 655 657 659 661 664 669 673 674 677 679 682 685 689 690 692 694 696 698 700 702 705 707 708 711 713 715 717 719 720 723 725 727 730 733 736 738 739 742 745 747 748 749 751 754 756 759 761 765 769 772 776 779 782 783 785 786 786 786 787 787 787 786
656 657 659 661 664 667 670 673 674 677 680 683 686 689 691 692 693 695 697 700 702 705 706 709 711 713 715 716 718 720 722 724 726 729 733 735 736 737 739 742 744 747 748 751 755 758 760 763 766 770 773 775 777 779 781 782 783 785 785 784 784 783 782
657 660 663 665 667 669 670 672 675 678 681 684 686 688 690 691 692 694 697 700 703 705 707 709 711 713 714 716 717 719 721 722 726 729 731 732 734 736 739 741 744 745 748 752 756 759 762 765 768 770 772 773 774 776 777 778 779 781 783 783 782 780 779
659 663 666 669 670 671 671 674 677 680 682 684 686 687 688 690 692 695 699 701 703 705 708 710 712 713 714 715 716 718 720 722 725 727 729 731 733 736 738 741 743 745 748 752 756 759 762 765 767 768 770 771 772 773 774 775 775 777 779 780 779 777 776
662 664 666 667 669 670 671 675 679 681 683 685 686 688 689 690 693 696 698 701 702 704 707 710 711 712 713 714 715 717 720 722 724 726 728 730 733 736 738 741 744 746 748 752 755 758 761 763 765 766 767 768 768 768 769 771 772 774 776 777 776 774 773
666 667 666 667 668 669 671 675 680 684 686 687 687 689 692 693 696 698 700 702 703 704 707 709 710 711 712 713 716 718 721 723 724 725 727 730 733 736 739 742 745 747 750 752 755 757 758 760 762 763 764 764 765 765 766 768 770 772 773 773 772 771 771
670 670 670 670 671 671 672 675 679 683 687 689 689 690 692 694 697 699 701 703 704 706 707 709 709 710 712 715 717 720 722 724 725 726 727 730 732 735 739 742 744 747 749 751 753 754 755 757 759 760 761 761 762 763 765 766 768 770 770 769 769 770 770
672 673 674 674 675 674 674 676 679 681 684 687 689 690 692 695 696 698 700 702 705 707 708 708 709 710 713 716 718 721 723 725 727 728 729 731 733 735 738 740 743 745 747 749 750 752 753 754 755 756 757 758 759 761 763 764 766 767 767 767 768 768 769
675 676 676 677 678 678 677 677 680 682 683 685 688 689 691 694 696 697 699 701 704 706 706 707 708 710 713 716 717 720 723 725 727 728 730 732 734 736 738 740 742 744 745 747 748 749 750 751 752 752 753 755 757 759 761 762 763 764 765 766 767 767 768
678 678 679 680 680 680 680 680 681 683 683 684 686 688 691 693 694 695 696 699 703 705 705 706 708 711 713 715 716 719 722 725 726 728 730 732 735 736 738 740 741 742 744 745 746 747 748 749 749 750 752 753 755 757 758 760 761 762 763 764 765 766 767
679 680 681 682 682 683 683 684 685 685 685 686 688 690 693 694 695 695 697 700 703 705 706 707 709 712 714 714 716 719 722 724 726 728 730 733 735 736 738 740 741 742 743 744 745 746 747 748 749 750 751 752 753 754 756 758 759 760 762 763 764 765 766
683 684 684 685 685 685 685 686 686 686 687 689 691 693 694 695 695 697 699 701 703 705 706 707 709 711 713 714 716 719 721 723 725 728 730 732 735 736 738 739 740 741 742 744 745 746 747 748 748 749 750 751 751 752 754 756 757 759 761 762 763 764 764
686 686 686 686 685 684 684 684 685 687 688 690 691 693 694 695 697 699 700 701 703 705 706 707 708 710 711 713 716 718 720 722 725 727 730 732 734 736 738 739 740 741 743 744 745 745 746 746 747 747 748 749 750 750 752 754 756 758 759 760 761 762 763
688 688 688 686 685 685 685 685 686 688 689 690 692 693 694 696 698 699 701 702 703 705 705 705 706 708 711 713 715 717 720 722 724 726 729 731 733 735 737 738 740 741 742 743 744 745 745 745 745 746 747 748 748 749 751 753 755 757 758 759 760 761 762